This is the latest recevied weather packets stored in our database for station/object K3RUP-1. If no packets are shown the sender has not sent any weather packets the latest 10 day(s).
| Time | Temp. | Humidity | Pressure | Rain* | Wind** | Luminosity | Snow |
|---|---|---|---|---|---|---|---|
| 1777844163 | 16.67° C | 31% | 1013.3 hPa | 0 mm | - | 111 W/m² | - |
| 1777843858 | 17.22° C | 33% | 1013.3 hPa | 0 mm | - | 88 W/m² | - |
| 1777843556 | 17.22° C | 33% | 1013.4 hPa | 0 mm | - | 198 W/m² | - |
| 1777843254 | 17.22° C | 31% | 1013.4 hPa | 0 mm | - | 97 W/m² | - |
| 1777842951 | 17.22° C | 31% | 1013 hPa | 0 mm | - | 142 W/m² | - |
| 1777842646 | 17.22° C | 36% | 1013.4 hPa | 0 mm | - | 82 W/m² | - |
| 1777842343 | 17.78° C | 33% | 1013.4 hPa | 0 mm | - | 262 W/m² | - |
| 1777842038 | 17.78° C | 34% | 1013.5 hPa | 0 mm | - | 412 W/m² | - |
| 1777841736 | 17.78° C | 33% | 1013.3 hPa | 0 mm | - | 405 W/m² | - |
| 1777841432 | 18.33° C | 33% | 1013.3 hPa | 0 mm | - | 335 W/m² | - |
| 1777841129 | 17.78° C | 33% | 1013.3 hPa | 0 mm | - | 359 W/m² | - |
| 1777840826 | 17.78° C | 32% | 1013.6 hPa | 0 mm | - | 423 W/m² | - |
| 1777840523 | 17.78° C | 32% | 1013.4 hPa | 0 mm | - | 419 W/m² | - |
| 1777840220 | 17.22° C | 32% | 1013.5 hPa | 0 mm | - | 469 W/m² | - |
| 1777839918 | 17.22° C | 32% | 1013.6 hPa | 0 mm | - | 488 W/m² | - |
| 1777839616 | 17.22° C | 34% | 1013.6 hPa | 0 mm | - | 63 W/m² | - |
| 1777839314 | 17.22° C | 35% | 1013.7 hPa | 0 mm | - | 356 W/m² | - |
| 1777839011 | 16.67° C | 34% | 1014 hPa | 0 mm | - | 544 W/m² | - |
| 1777838707 | 16.67° C | 33% | 1013.8 hPa | 0 mm | - | 544 W/m² | - |
| 1777838404 | 17.22° C | 35% | 1014 hPa | 0 mm | - | 524 W/m² | - |
| 1777838101 | 17.22° C | 34% | 1014 hPa | 0 mm | - | 518 W/m² | - |
| 1777837797 | 16.67° C | 35% | 1014.1 hPa | 0 mm | - | 607 W/m² | - |
| 1777837495 | 16.67° C | 33% | 1014.1 hPa | 0 mm | - | 587 W/m² | - |
| 1777837189 | 17.22° C | 32% | 1014.2 hPa | 0 mm | - | 571 W/m² | - |
| 1777836886 | 17.22° C | 35% | 1014.2 hPa | 0 mm | - | 560 W/m² | - |
* Rain latest hour (hover to see other rain measurements)
** Current wind speed in m/s (hover to see current wind gust speed)